QPF
0.00 0.01 0.04 0.03 0.02 0.01 0.01 0.01 0.00 0.00 0.00 0.00 0.00 0.00 0.00 0.00 0.00 0.00 0.00 0.00 0.00 0.00
0.00 0.00 0.01 0.02 0.02 0.01 0.01 0.01 0.01 0.01 0.01 0.00 0.00 0.00 0.00 0.00 0.00 0.00 0.00 0.00 0.00 0.00
0.00 0.00 0.00 0.01 0.01 0.01 0.01 0.02 0.02 0.02 0.03 0.03 0.02 0.01 0.00 0.00 0.00 0.00 0.00 0.00 0.00 0.00
0.00 0.00 0.00 0.00 0.01 0.01 0.01 0.01 0.02 0.04 0.05 0.07 0.08 0.08 0.06 0.01 0.00 0.01 0.00 0.00 0.00 0.00
0.00 0.00 0.00 0.00 0.00 0.01 0.03 0.02 0.01 0.04 0.08 0.13 0.16 0.16 0.18 0.15 0.08 0.03 0.02 0.01 0.01 0.00
0.00 0.00 0.00 0.00 0.00 0.00 0.01 0.03 0.03 0.01 0.02 0.04 0.11 0.31 0.42 0.35 0.26 0.16 0.06 0.05 0.03 0.02
0.00 0.00 0.00 0.00 0.00 0.00 0.00 0.01 0.02 0.02 0.03 0.03 0.04 0.10 0.15 0.26 0.39 0.40 0.30 0.17 0.13 0.08
0.00 0.00 0.00 0.00 0.00 0.00 0.00 0.00 0.00 0.01 0.01 0.01 0.02 0.05 0.10 0.11 0.10 0.25 0.50 0.45 0.39 0.30
0.00 0.00 0.00 0.00 0.01 0.01 0.00 0.00 0.00 0.00 0.00 0.00 0.00 0.01 0.02 0.03 0.05 0.05 0.10 0.16 0.23 0.46
0.00 0.00 0.00 0.00 0.00 0.01 0.02 0.01 0.01 0.00 0.01 0.01 0.01 0.01 0.01 0.00 0.01 0.02 0.02 0.03 0.05 0.09
0.00 0.00 0.00 0.00 0.00 0.00 0.00 0.01 0.01 0.00 0.01 0.01 0.01 0.01 0.02 0.01 0.01 0.00 0.00 0.00 0.00 0.02
0.00 0.00 0.00 0.00 0.00 0.00 0.00 0.00 0.00 0.00 0.00 0.00 0.00 0.01 0.02 0.02 0.02 0.01 0.00 0.00 0.00 0.00
0.00 0.00 0.00 0.00 0.00 0.00 0.00 0.00 0.00 0.00 0.00 0.00 0.00 0.00 0.00 0.01 0.01 0.01 0.00 0.00 0.00 0.00
0.00 0.00 0.00 0.00 0.00 0.00 0.00 0.00 0.00 0.00 0.00 0.00 0.00 0.00 0.00 0.00 0.00 0.00 0.00 0.00 0.00 0.00
MSLP
1019.17 1018.88 1018.45 1018.22 1017.38 1016.02 1015.36 1014.14 1012.86 1011.14 1008.85 1008.28 1008.70 1008.95 1009.23 1009.02 1008.74 1008.60 1008.61 1008.61 1008.66 1008.48
1019.30 1019.22 1018.93 1018.13 1017.63 1016.67 1015.73 1015.01 1013.49 1012.55 1011.05 1009.30 1007.84 1007.89 1008.14 1007.92 1007.71 1007.60 1007.42 1007.39 1007.48 1007.46
1019.86 1019.40 1019.19 1018.56 1017.95 1017.37 1015.98 1015.30 1013.72 1013.03 1012.07 1010.51 1009.02 1007.72 1007.15 1006.89 1006.75 1006.58 1006.21 1006.22 1006.34 1006.27
1019.96 1019.63 1019.42 1018.76 1018.56 1017.67 1016.58 1015.37 1014.62 1013.66 1012.77 1011.16 1010.50 1008.85 1007.60 1006.22 1005.91 1005.77 1005.38 1004.94 1004.92 1004.82
1019.97 1019.56 1019.63 1018.58 1018.41 1017.91 1016.66 1015.67 1015.48 1013.43 1013.10 1011.50 1010.51 1008.90 1010.00 1007.24 1005.27 1005.11 1004.62 1003.87 1003.82 1003.59
1019.60 1019.27 1019.48 1018.71 1017.94 1017.92 1016.81 1016.08 1014.82 1013.86 1013.13 1012.27 1010.63 1009.73 1008.81 1009.16 1007.66 1005.89 1003.13 1002.42 1002.45 1002.47
1019.48 1019.17 1018.83 1018.73 1018.24 1017.16 1017.02 1015.62 1014.46 1014.50 1013.58 1012.29 1010.88 1010.91 1010.83 1010.77 1008.94 1006.73 1004.89 1001.71 1001.16 1001.30
1019.20 1018.99 1018.35 1017.52 1016.94 1016.70 1016.25 1014.86 1015.30 1013.74 1013.42 1012.59 1011.81 1010.82 1011.63 1010.84 1008.78 1008.34 1005.24 1000.37 1001.56 1001.48
1019.15 1018.57 1018.00 1017.38 1016.72 1016.33 1015.28 1015.41 1013.77 1012.47 1013.47 1012.54 1012.45 1012.57 1010.91 1010.90 1009.02 1008.42 1006.58 1003.77 1002.89 1002.52
1018.98 1018.46 1017.83 1017.24 1016.47 1015.86 1015.57 1015.29 1014.58 1013.23 1012.02 1012.60 1011.45 1010.61 1011.32 1011.43 1007.87 1009.02 1007.23 1005.40 1003.13 1002.78
1019.16 1018.54 1017.88 1017.17 1016.55 1015.88 1015.26 1014.01 1013.07 1013.66 1014.18 1012.70 1011.66 1010.38 1011.31 1010.13 1008.60 1007.99 1006.57 1005.49 1004.38 1003.71
1019.17 1018.49 1017.86 1017.28 1016.67 1016.05 1015.03 1014.06 1013.50 1013.29 1012.33 1010.92 1011.18 1011.48 1009.07 1009.84 1007.83 1006.64 1006.97 1005.20 1004.92 1004.57
1019.25 1018.60 1017.93 1017.30 1016.56 1015.98 1015.22 1014.30 1013.49 1012.90 1012.07 1011.55 1011.14 1010.76 1010.58 1009.04 1008.04 1008.04 1006.69 1005.10 1005.32 1004.15
1019.25 1018.68 1017.96 1017.28 1016.87 1016.31 1015.80 1015.29 1014.66 1013.46 1011.92 1011.40 1010.54 1009.74 1009.49 1009.44 1009.19 1007.85 1006.92 1006.08 1005.06 1005.59
Thickness
5589 5596 5603 5608 5617 5634 5643 5657 5672 5689 5713 5720 5718 5717 5714 5717 5722 5725 5724 5725 5725 5727
5566 5570 5577 5589 5597 5607 5621 5632 5650 5660 5677 5696 5711 5711 5710 5712 5715 5718 5722 5723 5724 5724
5540 5549 5554 5563 5573 5582 5598 5607 5620 5632 5647 5667 5682 5696 5702 5705 5708 5710 5717 5718 5718 5720
5525 5528 5531 5540 5546 5559 5572 5585 5596 5610 5618 5636 5645 5663 5677 5691 5698 5698 5704 5712 5714 5717
5515 5515 5513 5523 5527 5536 5550 5562 5568 5588 5591 5609 5627 5650 5632 5666 5685 5686 5691 5702 5704 5710
5505 5506 5502 5508 5513 5517 5529 5537 5552 5566 5575 5586 5605 5620 5626 5617 5634 5651 5671 5691 5697 5702
5495 5495 5496 5493 5497 5508 5511 5524 5537 5541 5552 5566 5582 5584 5586 5590 5616 5619 5644 5661 5685 5692
5484 5484 5489 5494 5497 5501 5504 5512 5512 5527 5531 5544 5553 5566 5564 5570 5588 5597 5631 5642 5661 5668
5477 5477 5477 5479 5483 5485 5495 5493 5507 5516 5510 5523 5527 5521 5540 5546 5561 5568 5588 5621 5632 5647
5467 5466 5467 5467 5470 5471 5472 5472 5479 5493 5504 5500 5515 5522 5520 5516 5557 5548 5566 5588 5612 5624
5456 5455 5454 5454 5451 5453 5458 5468 5477 5468 5463 5480 5487 5499 5491 5506 5528 5530 5548 5564 5578 5592
5445 5444 5441 5439 5438 5435 5440 5449 5451 5450 5460 5475 5472 5467 5492 5487 5511 5525 5520 5543 5549 5559
5433 5430 5428 5425 5424 5424 5426 5430 5436 5439 5443 5447 5451 5455 5456 5474 5490 5491 5507 5525 5524 5536
5421 5418 5415 5413 5406 5403 5402 5402 5405 5417 5432 5436 5441 5447 5447 5448 5452 5470 5483 5494 5505 5501